Location: Table Mountain
(47.2500°N, 120.5778°W)
Time: 13:26:55
(UTC-07:00)

Vanguard 2 Rocket - All Passes

Search period start: 18 October 2017 00:00
Search period end: 28 October 2017 00:00
Orbit: 555 x 3327 km, 32.9° (Epoch: 17 October)

Date Brightness Start Highest point End Pass type
(mag) Time Alt. Az. Time Alt. Az. Time Alt. Az.
18 Oct - 12:41:09 10° S 12:44:42 15° SE 12:49:13 10° ESE daylight
18 Oct - 14:50:04 10° SW 14:56:44 33° SSE 15:07:29 10° ESE daylight
18 Oct - 17:01:39 10° WSW 17:10:29 36° S 17:24:21 10° SE daylight
18 Oct - 19:15:35 10° WSW 19:25:15 24° SSW 19:38:06 10° SSE visible
19 Oct - 13:52:01 10° SW 13:57:29 27° SSE 14:05:48 10° ESE daylight
19 Oct - 16:02:53 10° WSW 16:10:31 35° S 16:22:52 10° ESE daylight
19 Oct - 18:15:44 10° WSW 18:24:53 27° SSW 18:37:55 10° SSE visible
19 Oct - 20:34:26 10° SW 20:39:38 12° SW 20:45:25 10° SSW visible
20 Oct - 12:54:24 10° SSW 12:58:31 19° SSE 13:04:10 10° ESE daylight
20 Oct - 15:04:23 10° SW 15:10:53 33° S 15:21:20 10° ESE daylight
20 Oct - 17:16:26 10° WSW 17:24:41 30° SSW 17:37:10 10° SE daylight
20 Oct - 19:31:56 10° WSW 19:39:18 16° SSW 19:48:20 10° S visible
21 Oct - 11:57:54 10° SSE 11:59:48 12° SE 12:01:58 10° SE daylight
21 Oct - 14:06:09 10° SW 14:11:34 28° SSE 14:19:55 10° ESE daylight
21 Oct - 16:17:32 10° WSW 16:24:46 31° S 16:36:06 10° SE daylight
21 Oct - 18:31:21 10° WSW 18:39:03 20° SSW 18:49:16 10° SSE visible
22 Oct - 13:08:12 10° SSW 13:12:31 22° SSE 13:18:39 10° ESE daylight
22 Oct - 15:18:54 10° WSW 15:25:08 30° S 15:34:55 10° SE daylight
22 Oct - 17:31:38 10° WSW 17:38:57 23° SSW 17:49:17 10° SSE daylight
23 Oct - 12:10:46 10° S 12:13:43 15° SSE 12:17:22 10° ESE daylight
23 Oct - 14:20:32 10° SW 14:25:47 27° S 14:33:47 10° ESE daylight
23 Oct - 16:32:29 10° WSW 16:39:05 24° SSW 16:48:48 10° SSE daylight
23 Oct - 18:48:44 10° SW 18:53:14 13° SSW 18:58:28 10° S visible
24 Oct - 13:22:23 10° SW 13:26:41 23° SSE 13:32:49 10° ESE daylight
24 Oct - 15:33:41 10° WSW 15:39:27 25° S 15:48:05 10° SE daylight
24 Oct - 17:47:47 10° SW 17:53:14 15° SSW 18:00:08 10° S daylight
25 Oct - 12:24:31 10° SSW 12:27:47 18° SSE 12:31:59 10° ESE daylight
25 Oct - 14:35:09 10° SW 14:40:05 24° S 14:47:20 10° SE daylight
25 Oct - 16:48:02 10° SW 16:53:25 18° SSW 17:00:38 10° SSE daylight
26 Oct - 11:27:17 10° S 11:29:01 12° SSE 11:30:57 10° SE daylight
26 Oct - 13:36:49 10° SW 13:40:56 22° S 13:46:42 10° SE daylight
26 Oct - 15:48:52 10° SW 15:53:49 19° SSW 16:00:38 10° SSE daylight
27 Oct - 12:38:42 10° SW 12:41:59 18° S 12:46:13 10° SE daylight
27 Oct - 14:50:06 10° SW 14:54:26 19° S 15:00:25 10° SSE daylight
27 Oct - 17:05:53 10° SW 17:07:47 11° SSW 17:09:52 10° SSW daylight
